Tracking 27111 objects as of 29-Mar-2023
HD Live streaming from Space Station
objects crossing your sky now

CZ-4C DEB

Track CZ-4C DEB now!
10-day predictions


NORAD ID: 37567
Int'l Code: 2010-038C
Perigee: 579.7 km
Apogee: 771.9 km
Inclination: 97.8 °
Period: 98.1 minutes
Semi major axis: 7046 km
RCS: 0.0012 m2 (small)
Launch date: August 9, 2010
Source: People's Republic of China (PRC)
Launch site: Taiyaun Space Center, China (TSC)

Note: This is SATELLITE DEBRIS
Your satellite tracking list
Your tracking list is empty




NASA's NSSDC Master Catalog

Two Line Element Set (TLE):
1 37567U 10038C   23087.12956280  .00008481  00000-0  13030-2 0  9993
2 37567  97.7824 298.9521 0136378 117.3553  10.7191 14.67637137668022
Source of the keplerian elements: AFSPC